TimeCST,TemperatureF,Dew PointF,Humidity,Sea Level PressureIn,VisibilityMPH,Wind Direction,Wind SpeedMPH,Gust SpeedMPH,PrecipitationIn,Events,Conditions,WindDirDegrees,DateUTC
12:55 AM,29.7,11.5,47,30.53,10.0,NW,10.4,-,N/A,,Clear,320,2012-01-02 06:55:00
1:55 AM,28.8,11.7,49,30.53,10.0,NW,10.4,-,N/A,,Clear,310,2012-01-02 07:55:00
2:55 AM,28.0,11.7,50,30.53,10.0,NW,12.7,-,N/A,,Clear,310,2012-01-02 08:55:00
3:55 AM,27.1,12.4,54,30.53,10.0,NW,12.7,-,N/A,,Clear,310,2012-01-02 09:55:00
4:55 AM,26.6,12.6,55,30.53,10.0,WNW,12.7,-,N/A,,Clear,300,2012-01-02 10:55:00
5:55 AM,25.9,12.0,56,30.54,10.0,WNW,15.0,23.0,N/A,,Clear,300,2012-01-02 11:55:00
6:55 AM,25.0,10.9,55,30.56,10.0,NW,13.8,20.7,N/A,,Clear,310,2012-01-02 12:55:00
7:55 AM,24.6,9.7,53,30.58,10.0,WNW,13.8,20.7,N/A,,Clear,300,2012-01-02 13:55:00
8:55 AM,26.8,8.6,46,30.60,10.0,NW,15.0,-,N/A,,Clear,310,2012-01-02 14:55:00
9:55 AM,29.5,5.9,37,30.61,10.0,NW,18.4,26.5,N/A,,Clear,310,2012-01-02 15:55:00
10:55 AM,31.8,3.9,31,30.59,10.0,NW,19.6,28.8,N/A,,Clear,320,2012-01-02 16:55:00
11:55 AM,33.6,2.3,27,30.57,10.0,WNW,18.4,29.9,N/A,,Clear,300,2012-01-02 17:55:00
12:55 PM,35.2,0.3,23,30.54,10.0,WNW,25.3,32.2,N/A,,Clear,300,2012-01-02 18:55:00
1:55 PM,36.0,0.7,23,30.53,10.0,WNW,27.6,32.2,N/A,,Clear,290,2012-01-02 19:55:00
2:55 PM,36.0,1.8,24,30.54,10.0,NW,21.9,29.9,N/A,,Clear,320,2012-01-02 20:55:00
3:55 PM,34.3,1.2,25,30.55,10.0,NNW,17.3,-,N/A,,Clear,330,2012-01-02 21:55:00
4:55 PM,32.2,1.8,28,30.57,10.0,NNW,11.5,-,N/A,,Clear,330,2012-01-02 22:55:00
5:55 PM,28.4,2.3,33,30.58,10.0,NNW,6.9,-,N/A,,Clear,340,2012-01-02 23:55:00
6:55 PM,26.1,2.1,36,30.59,10.0,NW,6.9,-,N/A,,Clear,320,2012-01-03 00:55:00
7:55 PM,24.6,2.3,38,30.59,10.0,NNW,6.9,-,N/A,,Clear,330,2012-01-03 01:55:00
8:55 PM,23.2,3.0,42,30.59,10.0,NNW,4.6,-,N/A,,Clear,330,2012-01-03 02:55:00
9:55 PM,22.1,3.0,44,30.57,10.0,NNW,5.8,-,N/A,,Clear,340,2012-01-03 03:55:00
10:55 PM,21.2,3.9,47,30.57,10.0,Calm,Calm,-,N/A,,Clear,0,2012-01-03 04:55:00
11:55 PM,19.0,4.5,53,30.57,10.0,Calm,Calm,-,N/A,,Clear,0,2012-01-03 05:55:00